Flag for U.S.A. Weather past 2 weeks in Grand Prairie, Texas, U.S.A.

Now
54 °F

Passing clouds.


Feels Like: 54 °F
Forecast: 57 / 74 °F
Wind: No wind

Location: Grand Prairie Municipal Airport


UV Index: 7 (High)

Visibility: 5 mi


Pressure: 30.21 "Hg

Humidity: 94%

Dew point: 52 °F

Location of Grand PrairieLocation

Historic Weather in Grand Prairie

°F

Grand Prairie temperature yesterday

Maximum temperature yesterday: 63 °F (at 4:50 PM)
Minimum temperature yesterday: 50 °F (at 3:35 AM)
Average temperature yesterday: 56 °F

Past Weeks' High & Low Weather Summary

 TemperatureHumidityPressure
High84 °F (Apr 10, 4:50 PM)100% (Apr 6, 12:50 PM)30.36 "Hg (Apr 6, 12:50 PM)
Low37 °F (Apr 15, 6:35 AM)17% (Apr 15, 2:50 PM)29.59 "Hg (Apr 13, 8:35 PM)
Average59 °F62%30.01 "Hg
* Reported Apr 3 4:15 AM — Apr 18 4:15 AM, Grand Prairie, Weather by CustomWeather, © 2014

Note: Actual official high and low records may vary slightly from our data, if they occured in-between our weather recording intervals... More about our weather records

Advertising

Historic Weather Conditions — Data for Previous 24 hours

 ConditionsComfort  
Time TempWeatherWind HumidityBarometerVisibility
4:15 AM
Apr 18
54 °FPassing clouds.No wind94%30.21 "Hg7 mi
3:55 AM55 °FPassing clouds.No wind88%30.21 "Hg7 mi
3:35 AM55 °FPassing clouds.5 mph88%30.21 "Hg7 mi
3:15 AM55 °FPassing clouds.5 mph88%30.21 "Hg7 mi
2:55 AM54 °FPassing clouds.5 mph94%30.21 "Hg5 mi
2:35 AM54 °FClear.6 mph88%30.21 "Hg7 mi
2:15 AM55 °FClear.3 mph82%30.22 "Hg7 mi
1:55 AM55 °FPassing clouds.3 mph88%30.22 "Hg10 mi
1:35 AM57 °FPartly cloudy.3 mph82%30.23 "Hg10 mi
1:15 AM57 °FPassing clouds.5 mph82%30.24 "Hg10 mi
12:55 AM57 °FPassing clouds.No wind82%30.23 "Hg10 mi
12:15 AM59 °FPartly cloudy.7 mph77%30.24 "Hg10 mi
11:55 PM
Apr 17
59 °FMostly cloudy.3 mph77%30.24 "Hg10 mi
11:35 PM59 °FOvercast.3 mph77%30.23 "Hg10 mi
11:15 PM57 °FPartly cloudy.5 mph82%30.23 "Hg7 mi
10:55 PM59 °FPartly cloudy.3 mph77%30.23 "Hg7 mi
10:35 PM59 °FOvercast.5 mph77%30.23 "Hg7 mi
10:15 PM59 °FMostly cloudy.6 mph77%30.22 "Hg7 mi
9:55 PM59 °FOvercast.7 mph77%30.21 "Hg5 mi
9:35 PM59 °FPassing clouds.7 mph77%30.20 "Hg10 mi
9:15 PM59 °FPassing clouds.8 mph77%30.19 "Hg10 mi
8:55 PM59 °FPartly sunny.8 mph77%30.18 "Hg10 mi
8:35 PM59 °FPartly sunny.6 mph77%30.17 "Hg10 mi
8:15 PM59 °FScattered clouds.8 mph77%30.17 "Hg10 mi
7:50 PM61 °FScattered clouds.6 mph77%30.17 "Hg10 mi
6:50 PM59 °FScattered clouds.9 mph88%30.16 "Hg10 mi
5:50 PM63 °FCloudy.7 mph73%30.16 "Hg10 mi
4:50 PM63 °FOvercast.5 mph68%30.15 "Hg10 mi
3:50 PM61 °FCloudy.6 mph72%30.15 "Hg10 mi
2:50 PM61 °FPartly sunny.9 mph77%30.16 "Hg10 mi
1:50 PM59 °FPartly sunny.No wind82%30.17 "Hg10 mi
11:50 AM57 °FBroken clouds.7 mph82%30.18 "Hg10 mi
10:50 AM57 °FLight rain. Broken clouds.8 mph77%30.18 "Hg10 mi
9:50 AM57 °FPartly sunny.7 mph77%30.16 "Hg10 mi
8:50 AM55 °FBroken clouds.3 mph77%30.15 "Hg10 mi
7:50 AM52 °FPassing clouds.7 mph88%30.13 "Hg10 mi
6:50 AM52 °FClear.7 mph82%30.11 "Hg10 mi
6:35 AM50 °FClear.5 mph82%30.10 "Hg10 mi
6:15 AM50 °FPassing clouds.7 mph82%30.10 "Hg10 mi
5:55 AM52 °FPassing clouds.6 mph77%30.09 "Hg10 mi
5:35 AM50 °FPassing clouds.6 mph82%30.09 "Hg10 mi
5:15 AM52 °FClear.5 mph77%30.09 "Hg10 mi
Weather by CustomWeather, © 2014

See weather overview